FW1657 Weather Reports


Display with metric or nautical units.
time (UTC)temp
F
wind
direction
speed
MPH
gust
MPH
rain 1hr
in
rain 24hr
in
rain mn
in
humidity
%
barometer
mb
20260504010010 50 14 4.0 7.0 0.00 0.01 0.00 84 1013.4
20260504004509 50 15 6.0 9.0 0.00 0.01 0.00 83 1013.4
20260504003008 51 14 5.0 9.0 0.00 0.01 0.00 83 1013.4
20260504001507 50 9 5.0 9.0 0.00 0.01 0.00 85 1013.4
20260504000012 50 11 5.0 7.0 0.00 0.01 0.00 86 1013.2
20260503234502 50 13 5.0 7.0 0.00 0.01 0.00 86 1013.2
20260503233006 50 29 4.0 6.0 0.00 0.01 0.00 87 1013.2
20260503231501 50 17 4.0 6.0 0.00 0.01 0.00 86 1013.1
20260503230103 50 2 4.0 6.0 0.00 0.01 0.00 87 1013.1
20260503224559 50 9 4.0 6.0 0.00 0.01 0.00 87 1013.3
20260503223058 50 15 4.0 6.0 0.00 0.01 0.00 87 1013.4
20260503221559 51 13 4.0 6.0 0.00 0.01 0.00 86 1013.4
20260503220051 51 354 3.0 6.0 0.00 0.01 0.00 87 1013.4
20260503214551 51 12 3.0 6.0 0.00 0.01 0.01 87 1013.2
20260503213050 51 13 5.0 7.0 0.00 0.01 0.01 87 1013.4
20260503211556 51 9 5.0 7.0 0.00 0.01 0.01 85 1013.2
20260503210047 52 13 2.0 4.0 0.00 0.01 0.01 85 1013.2
20260503204546 52 8 3.0 4.0 0.00 0.01 0.01 85 1013.2
20260503203100 52 9 3.0 5.0 0.00 0.01 0.01 85 1013.3
20260503201545 52 11 5.0 7.0 0.00 0.01 0.01 85 1013.3
20260503200044 52 11 4.0 6.0 0.00 0.01 0.01 85 1013.3
20260503194547 52 11 4.0 6.0 0.00 0.01 0.01 85 1013.2
20260503193040 53 14 2.0 4.0 0.00 0.01 0.01 85 1013.2
20260503191541 53 13 2.0 3.0 0.00 0.01 0.01 84 1013.2
20260503190039 54 12 2.0 4.0 0.00 0.01 0.01 83 1013.2
20260503184533 55 12 1.0 4.0 0.00 0.01 0.01 83 1013.1
20260503183031 56 11 2.0 5.0 0.00 0.01 0.01 82 1012.9
20260503181531 56 11 3.0 6.0 0.00 0.01 0.01 81 1012.7
20260503180032 57 19 1.0 6.0 0.00 0.01 0.01 82 1012.6
20260503174530 57 18 4.0 8.0 0.00 0.01 0.01 83 1012.6
20260503173045 57 22 4.0 7.0 0.00 0.01 0.01 83 1012.6
20260503171536 57 19 3.0 7.0 0.00 0.01 0.01 84 1012.6
20260503100104 58 38 8.0 16.0 0.00 0.00 0.00 71 1013.4
20260503081554 60 42 13.0 22.0 0.00 0.00 0.00 55 1013.0
20260503071559 57 1 11.0 22.0 0.00 0.00 0.00 61 1012.8
20260503060104 57 23 10.0 19.0 0.00 0.00 0.00 60 1012.6
20260503054546 56 9 10.0 18.0 0.00 0.00 0.00 61 1012.7
20260503053045 56 8 9.0 18.0 0.00 0.00 0.00 61 1012.6
20260503051542 56 13 12.0 17.0 0.00 0.00 0.00 60 1012.6
20260503050041 56 13 10.0 17.0 0.00 0.00 0.00 60 1012.7
20260503044538 56 16 11.0 16.0 0.00 0.00 0.00 60 1012.8
20260503043034 56 35 11.0 16.0 0.00 0.00 0.00 60 1012.8
20260503041533 56 9 10.0 18.0 0.00 0.00 0.00 59 1012.8
20260503040034 56 29 9.0 19.0 0.00 0.00 0.00 59 1012.8
20260503034528 56 10 9.0 17.0 0.00 0.00 0.00 59 1012.9
20260503033048 56 358 10.0 17.0 0.00 0.00 0.00 58 1012.9
20260503031532 56 30 11.0 19.0 0.00 0.00 0.00 57 1013.0
20260503030025 56 15 11.0 17.0 0.00 0.00 0.00 57 1013.0
20260503024519 57 54 10.0 16.0 0.00 0.00 0.00 55 1013.1
20260503023035 57 345 12.0 16.0 0.00 0.00 0.00 55 1013.1
20260503021514 57 16 11.0 17.0 0.00 0.00 0.00 55 1013.3
20260503020012 58 27 10.0 17.0 0.00 0.00 0.00 55 1013.4
20260503014510 58 4 11.0 17.0 0.00 0.00 0.00 55 1013.5
20260503013008 57 13 8.0 17.0 0.00 0.00 0.00 57 1013.6
20260503011507 57 15 9.0 14.0 0.00 0.00 0.00 57 1013.5